[[{"header":{"parameterUnit":"m.s-1","parameterCategory":1,"la1":30.2992,"la2":30.254,"lo1":-89.0895,"lo2":-89.0443,"dy":0.0025,"dx":0.0025,"nx":19,"ny":19,"refTime":"2026-04-08T21:00:00:Z","depth":0,"parameterNumber":2,"parameterNumberName":"U-component_of_WINDS"},"data":[0,0,0,-2.5966,-2.5966,-2.5959,-2.5959,-2.5993,-2.5993,0,0,0,0,0,0,0,0,0,0,0,-2.5994,-2.5995,-2.5966,-2.5966,-2.5959,-2.5959,-2.5993,-2.5993,0,0,0,0,0,0,0,0,0,0,0,-2.5994,-2.5995,-2.5996,-2.5967,-2.5959,-2.5959,-2.5992,-2.5983,0,0,0,0,0,0,0,0,0,0,-2.5982,-2.6034,-2.5995,-2.5996,-2.5967,-2.5959,-2.5959,-2.5981,-2.5983,-2.6014,0,-2.6049,0,-2.6022,-2.5998,-2.5999,0,0,0,-2.5947,-2.6033,-2.6007,-2.5997,-2.5967,-2.5959,-2.5957,-2.5982,-2.5984,-2.6017,-2.6049,-2.6049,-2.6022,-2.5999,-2.5999,-2.6241,-2.6243,0,0,-2.5948,-2.6007,-2.6006,-2.601,-2.6013,-2.5957,-2.5957,-2.5983,-2.6021,-2.6049,-2.6049,-2.6023,-2.5999,-2.6,-2.6239,-2.6242,0,0,0,-2.5962,-2.6009,-2.5981,-2.6009,-2.6005,-2.5958,-2.5957,-2.602,-2.6006,-2.6049,-2.6023,-2.6,-2.6001,-2.6237,-2.624,-2.6399,0,0,0,-2.5961,-2.6016,-2.5982,-2.6019,-2.6005,-2.6012,-2.5995,-2.6004,-2.6005,-2.6023,-2.6,-2.6001,-2.6235,-2.6239,-2.639,-2.6466,0,0,0,-2.5986,-2.6019,-2.6027,-2.6022,-2.602,-2.601,-2.5997,-2.6003,-2.5991,-2.5999,-2.6002,-2.6233,-2.6238,-2.6382,-2.6452,-2.6548,0,0,0,-2.603,-2.6169,-2.603,-2.6175,-2.6021,-2.6108,-2.5996,-2.6058,-2.6084,-2.6,-2.6235,-2.624,-2.6379,-2.6443,-2.654,-2.6642,-2.6689,0,0,-2.6238,-2.6196,-2.6276,-2.6152,-2.6279,-2.6104,-2.6254,-2.6222,-2.6168,-2.622,-2.6225,-2.6393,-2.6451,-2.6546,-2.6929,-2.6967,0,0,0,-2.6362,-2.6422,-2.6442,-2.6468,-2.6446,-2.6433,-2.637,-2.6358,-2.6399,-2.6207,-2.645,-2.6483,-2.6536,-2.6583,-2.6615,-2.6658,-2.6263,-2.6262,-2.6262,-2.6746,-2.6668,-2.6796,-2.6718,-2.6745,-2.6678,-2.6693,-2.6664,-2.6579,-2.6638,-2.6654,-2.6896,-2.6952,-2.6976,-2.7021,-2.6699,-2.67,-2.67,-2.6701,-2.7046,-2.7119,-2.6999,-2.7081,-2.6998,-2.7066,-2.7006,-2.6943,-2.6995,-2.6877,-2.692,-2.6802,-2.702,-2.7056,-2.6712,-2.671,-2.6708,-2.6707,-2.6707,-2.7292,-2.7313,-2.7293,-2.7322,-2.7354,-2.7268,-2.7323,-2.7244,-2.7171,-2.7214,-2.7223,-2.722,-2.721,-2.7223,-2.7224,-2.7225,-2.7225,-2.7226,-2.7227,-2.7555,-2.7528,-2.7583,-2.7569,-2.7575,-2.7573,-2.7505,-2.7509,-2.7494,-2.7432,-2.7432,-2.7343,-2.7054,-2.6985,-2.7239,-2.7237,-2.7235,-2.7234,-2.7233,-2.7894,-2.7804,-2.7891,-2.7896,-2.7872,-2.7909,-2.7806,-2.7821,-2.7812,-2.7842,-2.7741,-2.754,-2.7492,-2.7465,-2.7408,-2.7756,-2.7756,-2.7756,-2.7756,-2.8104,-2.807,-2.8139,-2.8154,-2.8159,-2.8075,-2.8175,-2.8123,-2.8055,-2.8045,-2.7982,-2.7898,-2.7874,-2.784,-2.7806,-2.7751,-2.8179,-2.8179,-2.818,-2.8309,-2.8271,-2.8372,-2.8303,-2.8278,-2.8258,-2.835,-2.8372,-2.8276,-2.8195,-2.8036,-2.8018,-2.7881,-2.784,-2.7761,-2.7709,-2.7607,0,0]},{"header":{"parameterUnit":"m.s-1","parameterCategory":1,"la1":30.2992,"la2":30.254,"lo1":-89.0895,"lo2":-89.0443,"dy":0.0025,"dx":0.0025,"nx":19,"ny":19,"refTime":"2026-04-08T21:00:00:Z","depth":0,"parameterNumber":3,"parameterNumberName":"V-component_of_WINDS"},"data":[0,0,0,-0.2337,-0.2339,-0.2501,-0.2502,-0.268,-0.2681,0,0,0,0,0,0,0,0,0,0,0,-0.2271,-0.2271,-0.2336,-0.234,-0.2501,-0.2502,-0.268,-0.2681,0,0,0,0,0,0,0,0,0,0,0,-0.227,-0.2271,-0.2272,-0.234,-0.2501,-0.2502,-0.2679,-0.2568,0,0,0,0,0,0,0,0,0,0,-0.2416,-0.2338,-0.2271,-0.2272,-0.2341,-0.2501,-0.2502,-0.2563,-0.2575,-0.2594,0,-0.2606,0,-0.2646,-0.2691,-0.2692,0,0,0,-0.2354,-0.2328,-0.2387,-0.2272,-0.2342,-0.25,-0.2432,-0.257,-0.2583,-0.261,-0.2609,-0.2616,-0.2649,-0.2692,-0.2693,-0.2754,-0.2753,0,0,-0.2345,-0.2291,-0.2378,-0.2395,-0.2367,-0.2427,-0.2437,-0.2579,-0.2574,-0.2609,-0.2621,-0.2652,-0.2693,-0.2694,-0.2754,-0.2754,0,0,0,-0.231,-0.2284,-0.2341,-0.2387,-0.2418,-0.2431,-0.2443,-0.2568,-0.2591,-0.2623,-0.2654,-0.2694,-0.2696,-0.2755,-0.2754,-0.2682,0,0,0,-0.2305,-0.2264,-0.2336,-0.2304,-0.2414,-0.2495,-0.2429,-0.2581,-0.2599,-0.2653,-0.2694,-0.2697,-0.2755,-0.2754,-0.2685,-0.2657,0,0,0,-0.2266,-0.2259,-0.2276,-0.2301,-0.2368,-0.2494,-0.2525,-0.2586,-0.2617,-0.2692,-0.2698,-0.2756,-0.2755,-0.2688,-0.2662,-0.2656,0,0,0,-0.221,-0.2212,-0.2274,-0.2288,-0.2366,-0.2447,-0.2525,-0.2589,-0.2644,-0.2695,-0.2755,-0.2754,-0.2689,-0.2665,-0.2659,-0.2642,-0.2629,0,0,-0.2182,-0.2207,-0.2219,-0.2279,-0.2335,-0.2427,-0.2473,-0.2576,-0.2634,-0.2711,-0.2713,-0.2684,-0.2662,-0.2657,-0.258,-0.257,0,0,0,-0.2192,-0.22,-0.2227,-0.2275,-0.2352,-0.2416,-0.2518,-0.2556,-0.2623,-0.2662,-0.2683,-0.2671,-0.267,-0.2665,-0.2656,-0.2658,-0.2749,-0.2749,-0.2749,-0.2076,-0.2147,-0.2172,-0.2261,-0.2308,-0.241,-0.2455,-0.2524,-0.2585,-0.2587,-0.2611,-0.2555,-0.2546,-0.254,-0.2542,-0.2608,-0.2608,-0.2607,-0.2607,-0.2042,-0.2064,-0.214,-0.2192,-0.2267,-0.2311,-0.2409,-0.245,-0.2502,-0.2544,-0.2547,-0.2586,-0.2527,-0.2532,-0.2603,-0.2603,-0.2604,-0.2604,-0.2605,-0.1974,-0.1996,-0.204,-0.2116,-0.2167,-0.2258,-0.2303,-0.2371,-0.2435,-0.2438,-0.2469,-0.247,-0.248,-0.2448,-0.2448,-0.2447,-0.2447,-0.2447,-0.2447,-0.1885,-0.1937,-0.1967,-0.2046,-0.2084,-0.2144,-0.2245,-0.2285,-0.2348,-0.2393,-0.2394,-0.2453,-0.2508,-0.2519,-0.2444,-0.2445,-0.2445,-0.2445,-0.2446,-0.1824,-0.1848,-0.1893,-0.1931,-0.2028,-0.2073,-0.2157,-0.2233,-0.2276,-0.2296,-0.2354,-0.2383,-0.2414,-0.2421,-0.2432,-0.2339,-0.2339,-0.2339,-0.2339,-0.1767,-0.1787,-0.1847,-0.1903,-0.1967,-0.2046,-0.2094,-0.2171,-0.2256,-0.2287,-0.231,-0.2329,-0.2334,-0.2362,-0.2371,-0.2382,-0.2278,-0.2278,-0.2278,-0.1732,-0.1762,-0.179,-0.187,-0.195,-0.2017,-0.2064,-0.2126,-0.2227,-0.2276,-0.2312,-0.2315,-0.2347,-0.2354,-0.2405,-0.2417,-0.2439,0,0]}]]